CALSPHERE 1 1 00900U 64063C 26173.69522575 .00000448 00000+0 44699-3 0 9998 2 00900 90.2231 71.9007 0023466 279.2110 165.9433 13.76628680 72181 CALSPHERE 2 1 00902U 64063E 26173.72003120 .00000035 00000+0 39551-4 0 9998 2 00902 90.2371 75.9283 0017523 205.9160 185.9950 13.52900545857012 LCS 1 1 01361U 65034C 26173.62455373 .00000003 00000+0 -74314-3 0 9998 2 01361 32.1355 164.1127 0012293 142.1339 218.0025 9.89310776210421 TEMPSAT 1 1 01512U 65065E 26173.55873968 .00000023 00000+0 28349-4 0 9995 2 01512 89.9985 212.5946 0068082 232.5672 282.2793 13.33594310960762 CALSPHERE 4A 1 01520U 65065H 26173.84542199 .00000101 00000+0 17496-3 0 9992 2 01520 89.8985 122.4320 0072121 87.4003 357.6872 13.36279361963463 OPS 5712 (P/L 160) 1 02826U 67053A 26173.80211210 .00005198 00000+0 73341-3 0 9996 2 02826 69.9175 24.5328 0000837 291.9251 68.1808 14.77776682 67063 OPS 5712 (P/L 153) 1 02874U 67053H 26173.49403080 .00000001 00000+0 38738-4 0 9992 2 02874 69.9739 103.9321 0008226 207.9030 152.1636 13.96828946 7539 RIGIDSPHERE 2 (LCS 4) 1 05398U 71067E 26173.82881919 .00000548 00000+0 17250-3 0 9995 2 05398 87.6217 337.2416 0058677 212.2495 147.5112 14.37872825874694 COSMOS 2493 (SKRL-756 1) 1 39490U 13078A 26173.81379691 .00001744 00000+0 13030-3 0 9992 2 39490 82.4120 255.6822 0012092 218.7427 141.2932 15.02182812678800 COSMOS 2494 (SKRL-756 2) 1 39491U 13078B 26173.80168826 .00002802 00000+0 19564-3 0 9992 2 39491 82.4111 245.0595 0016045 180.0731 180.0496 15.04890219679651